Voltar ao catálogo

STARLINK-33821

AtivoComunicaçõesVLEO
NORAD 63859·PAYLOAD·🇺🇸 United States

Lançado May 7, 2025 de Cape Canaveral Space Force Station

Loading…

Próximas Passagens (próximas 24 horas)

TLE

AtualizadoSource: CelesTrak SupGP

Época: Sep 14, 2026, 22:57 UTC

1 63859C 25093Z   26257.95673611  .00034485  00000+0  12491-2 0  2579
2 63859  43.0014  89.1523 0001636 271.2212 175.1472 15.27558994    19

Acompanhe STARLINK-33821 em tempo real com AllMySat

Download on the App Store